******** Week 145 almanac for PRN-1 ******** ID: 1 Health: 0 Eccentricity: 0.0112657547 Time of Applicability(s): 233472 Orbital Inclination(rad): 0.9863939882 Rate of Right Ascen(r/s): -8.046049436e-09 SQRT(A) (m 1/2): 5153.622559 Right Ascen at Week(rad): -1.410153785 Argument of Perigee(rad): 0.8821895052 Mean Anom(rad): 2.551980025 Af0(s): 0.0003587489746 Af1(s/s): -1.091394e-11 week: 145 ******** Week 145 almanac for PRN-2 ******** ID: 2 Health: 0 Eccentricity: 0.02069425583 Time of Applicability(s): 233472 Orbital Inclination(rad): 0.9647384938 Rate of Right Ascen(r/s): -8.183198006e-09 SQRT(A) (m 1/2): 5153.624512 Right Ascen at Week(rad): -1.498891352 Argument of Perigee(rad): -1.455375508 Mean Anom(rad): 2.712484 Af0(s): -0.0005124985352 Af1(s/s): 0 week: 145 ******** Week 145 almanac for PRN-3 ******** ID: 3 Health: 0 Eccentricity: 0.003867149353 Time of Applicability(s): 233472 Orbital Inclination(rad): 0.9725462164 Rate of Right Ascen(r/s): -7.760323248e-09 SQRT(A) (m 1/2): 5153.65625 Right Ascen at Week(rad): -0.3746021532 Argument of Perigee(rad): 0.9734519995 Mean Anom(rad): 1.386305926 Af0(s): -6.556966553e-05 Af1(s/s): -1.455192e-11 week: 145 ******** Week 145 almanac for PRN-4 ******** ID: 4 Health: 0 Eccentricity: 0.001651287079 Time of Applicability(s): 233472 Orbital Inclination(rad): 0.96112525 Rate of Right Ascen(r/s): -7.657461821e-09 SQRT(A) (m 1/2): 5153.613281 Right Ascen at Week(rad): 0.7061273845 Argument of Perigee(rad): -3.102856644 Mean Anom(rad): -1.911048696 Af0(s): -0.0001537495605 Af1(s/s): 3.637979e-12 week: 145 ******** Week 145 almanac for PRN-5 ******** ID: 5 Health: 0 Eccentricity: 0.005895137787 Time of Applicability(s): 233472 Orbital Inclination(rad): 0.9595133718 Rate of Right Ascen(r/s): -7.931758961e-09 SQRT(A) (m 1/2): 5153.605957 Right Ascen at Week(rad): -0.4146186037 Argument of Perigee(rad): 1.011843464 Mean Anom(rad): -1.083624103 Af0(s): -5.426455078e-05 Af1(s/s): 0 week: 145 ******** Week 145 almanac for PRN-6 ******** ID: 6 Health: 0 Eccentricity: 0.002642631531 Time of Applicability(s): 233472 Orbital Inclination(rad): 0.9857768007 Rate of Right Ascen(r/s): -8.046049436e-09 SQRT(A) (m 1/2): 5153.604492 Right Ascen at Week(rad): -1.418426645 Argument of Perigee(rad): -0.9962388796 Mean Anom(rad): 2.916770094 Af0(s): 0.0001379223999 Af1(s/s): 1.091394e-11 week: 145 ******** Week 145 almanac for PRN-7 ******** ID: 7 Health: 0 Eccentricity: 0.01544189453 Time of Applicability(s): 233472 Orbital Inclination(rad): 0.9505132189 Rate of Right Ascen(r/s): -8.046049436e-09 SQRT(A) (m 1/2): 5153.634277 Right Ascen at Week(rad): 1.725588696 Argument of Perigee(rad): -2.295061462 Mean Anom(rad): 1.889016822 Af0(s): 0.0002396684326 Af1(s/s): 3.637979e-12 week: 145 ******** Week 145 almanac for PRN-8 ******** ID: 8 Health: 0 Eccentricity: 0.007151126862 Time of Applicability(s): 233472 Orbital Inclination(rad): 0.9652478234 Rate of Right Ascen(r/s): -7.714607058e-09 SQRT(A) (m 1/2): 5153.666016 Right Ascen at Week(rad): -2.489726096 Argument of Perigee(rad): 0.08257280766 Mean Anom(rad): -1.436123975 Af0(s): -4.14520874e-05 Af1(s/s): 0 week: 145 ******** Week 145 almanac for PRN-9 ******** ID: 9 Health: 0 Eccentricity: 0.002329826355 Time of Applicability(s): 233472 Orbital Inclination(rad): 0.954144439 Rate of Right Ascen(r/s): -7.714607058e-09 SQRT(A) (m 1/2): 5153.588867 Right Ascen at Week(rad): 0.653401289 Argument of Perigee(rad): 1.858276536 Mean Anom(rad): -1.099946242 Af0(s): -0.0002826278686 Af1(s/s): 0 week: 145 ******** Week 145 almanac for PRN-10 ******** ID: 10 Health: 0 Eccentricity: 0.007441520691 Time of Applicability(s): 233472 Orbital Inclination(rad): 0.9723784372 Rate of Right Ascen(r/s): -7.748894201e-09 SQRT(A) (m 1/2): 5153.638184 Right Ascen at Week(rad): -0.3773993462 Argument of Perigee(rad): -2.533288379 Mean Anom(rad): 0.540279194 Af0(s): -0.0002343927124 Af1(s/s): -1.091394e-11 week: 145 ******** Week 145 almanac for PRN-11 ******** ID: 11 Health: 255 Eccentricity: 0.0002932548523 Time of Applicability(s): 233472 Orbital Inclination(rad): 0.9615027531 Rate of Right Ascen(r/s): -8.286059433e-09 SQRT(A) (m 1/2): 5153.706543 Right Ascen at Week(rad): -1.365710287 Argument of Perigee(rad): 2.861852008 Mean Anom(rad): -1.585282259 Af0(s): -4.446678467e-05 Af1(s/s): -3.637979e-11 week: 145 ******** Week 145 almanac for PRN-12 ******** ID: 12 Health: 0 Eccentricity: 0.008593082428 Time of Applicability(s): 233472 Orbital Inclination(rad): 0.970928346 Rate of Right Ascen(r/s): -7.577458489e-09 SQRT(A) (m 1/2): 5153.570801 Right Ascen at Week(rad): 2.838102645 Argument of Perigee(rad): 1.238106005 Mean Anom(rad): 1.225779106 Af0(s): -0.0001243562622 Af1(s/s): -7.275958e-12 week: 145 ******** Week 145 almanac for PRN-13 ******** ID: 13 Health: 0 Eccentricity: 0.005797386169 Time of Applicability(s): 233472 Orbital Inclination(rad): 0.9685075326 Rate of Right Ascen(r/s): -7.577458489e-09 SQRT(A) (m 1/2): 5153.62793 Right Ascen at Week(rad): 0.8057852028 Argument of Perigee(rad): 0.9696054378 Mean Anom(rad): -2.047159156 Af0(s): 0.0001952016479 Af1(s/s): 7.275958e-12 week: 145 ******** Week 145 almanac for PRN-14 ******** ID: 14 Health: 0 Eccentricity: 0.001338005066 Time of Applicability(s): 233472 Orbital Inclination(rad): 0.9543122182 Rate of Right Ascen(r/s): -7.714607058e-09 SQRT(A) (m 1/2): 5153.594238 Right Ascen at Week(rad): 2.807264987 Argument of Perigee(rad): 3.037307802 Mean Anom(rad): 1.269772821 Af0(s): -5.727924805e-05 Af1(s/s): -3.637979e-12 week: 145 ******** Week 145 almanac for PRN-15 ******** ID: 15 Health: 0 Eccentricity: 0.01392555237 Time of Applicability(s): 233472 Orbital Inclination(rad): 0.9300621391 Rate of Right Ascen(r/s): -7.908900866e-09 SQRT(A) (m 1/2): 5153.674805 Right Ascen at Week(rad): 0.5481015223 Argument of Perigee(rad): 1.070637322 Mean Anom(rad): -2.447660717 Af0(s): -7.159906006e-05 Af1(s/s): 3.637979e-12 week: 145 ******** Week 145 almanac for PRN-16 ******** ID: 16 Health: 0 Eccentricity: 0.01266098022 Time of Applicability(s): 233472 Orbital Inclination(rad): 0.9708983854 Rate of Right Ascen(r/s): -7.577458489e-09 SQRT(A) (m 1/2): 5153.542969 Right Ascen at Week(rad): 2.85672688 Argument of Perigee(rad): 0.698400181 Mean Anom(rad): -0.6300650071 Af0(s): -0.0003617636719 Af1(s/s): -3.637979e-12 week: 145 ******** Week 145 almanac for PRN-17 ******** ID: 17 Health: 0 Eccentricity: 0.0137052536 Time of Applicability(s): 233472 Orbital Inclination(rad): 0.9802820335 Rate of Right Ascen(r/s): -7.600316584e-09 SQRT(A) (m 1/2): 5153.703125 Right Ascen at Week(rad): -2.408260331 Argument of Perigee(rad): -1.506906552 Mean Anom(rad): -1.532447182 Af0(s): 0.000445421521 Af1(s/s): 3.637979e-12 week: 145 ******** Week 145 almanac for PRN-18 ******** ID: 18 Health: 0 Eccentricity: 0.002087593079 Time of Applicability(s): 233472 Orbital Inclination(rad): 0.9701853241 Rate of Right Ascen(r/s): -8.194627053e-09 SQRT(A) (m 1/2): 5153.575195 Right Ascen at Week(rad): -1.401918375 Argument of Perigee(rad): 3.111835075 Mean Anom(rad): 2.738127994 Af0(s): 0.0002042457397 Af1(s/s): -7.275958e-12 week: 145 ******** Week 145 almanac for PRN-19 ******** ID: 19 Health: 0 Eccentricity: 0.008936882019 Time of Applicability(s): 233472 Orbital Inclination(rad): 0.9789877373 Rate of Right Ascen(r/s): -7.657461821e-09 SQRT(A) (m 1/2): 5153.638672 Right Ascen at Week(rad): -2.363352444 Argument of Perigee(rad): 1.99786729 Mean Anom(rad): 0.8671358207 Af0(s): 8.441152344e-05 Af1(s/s): 3.637979e-12 week: 145 ******** Week 145 almanac for PRN-20 ******** ID: 20 Health: 0 Eccentricity: 0.00527715683 Time of Applicability(s): 233472 Orbital Inclination(rad): 0.9416329082 Rate of Right Ascen(r/s): -8.160339911e-09 SQRT(A) (m 1/2): 5153.678223 Right Ascen at Week(rad): -0.5281032215 Argument of Perigee(rad): 3.10576544 Mean Anom(rad): -2.676163934 Af0(s): 0.0004084914795 Af1(s/s): 0 week: 145 ******** Week 145 almanac for PRN-21 ******** ID: 21 Health: 0 Eccentricity: 0.02454328537 Time of Applicability(s): 233472 Orbital Inclination(rad): 0.9589800738 Rate of Right Ascen(r/s): -8.206056101e-09 SQRT(A) (m 1/2): 5153.540527 Right Ascen at Week(rad): -1.500344814 Argument of Perigee(rad): -1.024049023 Mean Anom(rad): -1.369968431 Af0(s): 0.0001236025879 Af1(s/s): 0 week: 145 ******** Week 145 almanac for PRN-22 ******** ID: 22 Health: 255 Eccentricity: 0.006903171539 Time of Applicability(s): 233472 Orbital Inclination(rad): 0.9383911754 Rate of Right Ascen(r/s): -8.160339911e-09 SQRT(A) (m 1/2): 5153.57959 Right Ascen at Week(rad): -0.4823204863 Argument of Perigee(rad): -0.8548239021 Mean Anom(rad): -2.635188745 Af0(s): -0.0003278483276 Af1(s/s): 7.275958e-12 week: 145 ******** Week 145 almanac for PRN-23 ******** ID: 23 Health: 0 Eccentricity: 0.001954555511 Time of Applicability(s): 233472 Orbital Inclination(rad): 0.967410976 Rate of Right Ascen(r/s): -7.817468486e-09 SQRT(A) (m 1/2): 5153.656738 Right Ascen at Week(rad): -0.4021048259 Argument of Perigee(rad): 2.919052339 Mean Anom(rad): 1.887088485 Af0(s): 7.536743164e-06 Af1(s/s): -3.637979e-12 week: 145 ******** Week 145 almanac for PRN-24 ******** ID: 24 Health: 0 Eccentricity: 0.01228713989 Time of Applicability(s): 233472 Orbital Inclination(rad): 0.9339929648 Rate of Right Ascen(r/s): -8.240343243e-09 SQRT(A) (m 1/2): 5153.626953 Right Ascen at Week(rad): 1.643276171 Argument of Perigee(rad): 0.8016143181 Mean Anom(rad): 2.856287583 Af0(s): 0.0002193192261 Af1(s/s): 0 week: 145 ******** Week 145 almanac for PRN-25 ******** ID: 25 Health: 0 Eccentricity: 0.01038551331 Time of Applicability(s): 233472 Orbital Inclination(rad): 0.958296973 Rate of Right Ascen(r/s): -7.703178011e-09 SQRT(A) (m 1/2): 5153.671875 Right Ascen at Week(rad): 2.761755268 Argument of Perigee(rad): 0.9726801405 Mean Anom(rad): 0.991997213 Af0(s): 0.0002155508545 Af1(s/s): 7.275958e-12 week: 145 ******** Week 145 almanac for PRN-26 ******** ID: 26 Health: 0 Eccentricity: 0.006792068481 Time of Applicability(s): 233472 Orbital Inclination(rad): 0.9391042368 Rate of Right Ascen(r/s): -7.931758961e-09 SQRT(A) (m 1/2): 5153.628906 Right Ascen at Week(rad): 2.715303663 Argument of Perigee(rad): 0.3518935451 Mean Anom(rad): 0.3427196209 Af0(s): 0.0001386760742 Af1(s/s): 3.637979e-12 week: 145 ******** Week 145 almanac for PRN-27 ******** ID: 27 Health: 0 Eccentricity: 0.0100440979 Time of Applicability(s): 233472 Orbital Inclination(rad): 0.9739303943 Rate of Right Ascen(r/s): -7.646032773e-09 SQRT(A) (m 1/2): 5153.608887 Right Ascen at Week(rad): -2.470531112 Argument of Perigee(rad): 0.6303874576 Mean Anom(rad): -1.505220896 Af0(s): 5.9540271e-05 Af1(s/s): 2.182787e-11 week: 145 ******** Week 145 almanac for PRN-29 ******** ID: 29 Health: 0 Eccentricity: 0.001773357391 Time of Applicability(s): 233472 Orbital Inclination(rad): 0.9822714149 Rate of Right Ascen(r/s): -7.623174678e-09 SQRT(A) (m 1/2): 5153.724121 Right Ascen at Week(rad): -2.395307631 Argument of Perigee(rad): 2.287189324 Mean Anom(rad): -1.396527346 Af0(s): -0.0003708077637 Af1(s/s): -3.637979e-12 week: 145 ******** Week 145 almanac for PRN-30 ******** ID: 30 Health: 0 Eccentricity: 0.005424976349 Time of Applicability(s): 233472 Orbital Inclination(rad): 0.9356947248 Rate of Right Ascen(r/s): -8.217485148e-09 SQRT(A) (m 1/2): 5153.519531 Right Ascen at Week(rad): 1.739158958 Argument of Perigee(rad): -2.75095074 Mean Anom(rad): 1.905031866 Af0(s): -0.0004009547363 Af1(s/s): -3.637979e-12 week: 145 ******** Week 145 almanac for PRN-31 ******** ID: 31 Health: 0 Eccentricity: 0.01046323776 Time of Applicability(s): 233472 Orbital Inclination(rad): 0.9547616266 Rate of Right Ascen(r/s): -8.011762293e-09 SQRT(A) (m 1/2): 5153.608887 Right Ascen at Week(rad): 1.743577767 Argument of Perigee(rad): 0.3670842991 Mean Anom(rad): 1.438109611 Af0(s): -0.0001266172852 Af1(s/s): 0 week: 145 ******** Week 145 almanac for PRN-32 ******** ID: 32 Health: 0 Eccentricity: 0.005428314209 Time of Applicability(s): 233472 Orbital Inclination(rad): 0.9580033594 Rate of Right Ascen(r/s): -7.634603726e-09 SQRT(A) (m 1/2): 5153.717285 Right Ascen at Week(rad): 0.6644788324 Argument of Perigee(rad): -2.37290874 Mean Anom(rad): -0.8264681025 Af0(s): -4.14520874e-05 Af1(s/s): -7.275958e-12 week: 145